www.pogodaiklimat.ru

Погода и климат >> Архив погоды >> Австралия >> Северная территория >> Манбуллу Ксиро


ПОГОДА в Манбуллу Ксиро

  • Прогноз погоды в Манбуллу Ксиро
  • Монитор погоды в Манбуллу Ксиро

АРХИВ ПОГОДЫ в Манбуллу Ксиро

Время (UTC), дата Ветер
(напр.,м/с)
 
Видим.   Явления Облачность Т
(С)
Тd
(С)
f
(%)
Тe
(С)
Тes
(С)
Комфортность P
(гПа)
Po
(гПа)
Тmin
(С)
Tmax
(С)
R
(мм)
R24
(мм)
S
(см)
14 14.05 СВ 1 н/о н/о +22.6 +7.6 38 +24 +24 комфорт 1015.3 1006.5 +35.8
17 14.05 СВ 1 н/о н/о +23.9 +4.8 29 +24 +24 комфорт 1014.6 1005.8
20 14.05 Ю 2 н/о н/о +19.3 +7.1 45 +20 +20 1015.6 1006.8
23 14.05 Ю 2 н/о н/о +26.6 +5.0 25 +26 +26 жарко 1017.4 1008.6
02 15.05 В 5 н/о н/о +32.4 +5.8 19 +30 +30 жарко 1015.1 1006.3 +19.1
05 15.05 Ю 6 н/о н/о +35.0 +4.5 15 +32 +32 жарко 1011.9 1003.2
08 15.05 Ю 4 н/о н/о +33.8 +5.4 17 +31 +31 жарко 1012.2 1003.5
11 15.05 СЗ 2 н/о н/о +25.3 +7.4 32 +25 +25 комфорт 1014.2 1005.5
14 15.05 штиль 0 н/о н/о +22.4 +7.4 38 +23 +23 комфорт 1014.1 1005.4 +35.9
17 15.05 С 2 н/о н/о +20.1 +9.7 51 +22 +22 комфорт 1013.0 1004.3
20 15.05 С 3 н/о н/о +20.8 +10.6 52 +23 +23 комфорт 1012.6 1003.9
23 15.05 штиль 0 н/о н/о +27.4 +8.8 31 +27 +27 жарко 1014.3 1005.6
02 16.05 В 4 н/о н/о +33.5 +14.0 31 +35 +35 душно 1012.8 1004.1 +19.0
05 16.05 СВ 3 н/о н/о +36.3 +14.9 28 +38 +38 очень
душно
1009.9 1001.2
08 16.05 ЮВ 4 н/о н/о +35.0 +13.8 28 +36 +36 очень
жарко
1010.2 1001.5
11 16.05 штиль 0 н/о н/о +29.6 +15.3 42 +32 +32 душно 1012.3 1003.6
14 16.05 В 3 н/о н/о +29.6 +16.1 44 +33 +33 душно 1012.1 1003.4 +37.1
17 16.05 С 1 н/о н/о +27.8 +17.3 53 +32 +32 душно 1011.7 1003.0
20 16.05 С 2 н/о н/о +26.0 +19.4 67 +31 +31 очень
душно
1012.0 1003.3
23 16.05 В 5 н/о н/о +29.6 +20.7 59 +37 +37 очень
душно
1013.5 1004.8
02 17.05 В 7 н/о н/о +33.8 +18.7 41 +39 +39 очень
душно
1012.7 1004.0 +25.7
05 17.05 В 5 н/о н/о +36.3 +17.0 32 +39 +39 очень
душно
1010.0 1001.3
08 17.05 В 5 н/о н/о +34.9 +16.2 33 +37 +37 очень
душно
1010.1 1001.4
11 17.05 СВ 3 н/о н/о +31.3 +18.3 46 +36 +36 очень
душно
1012.6 1003.9
14 17.05 В 5 н/о н/о +28.8 +19.4 57 +35 +35 очень
душно
1013.8 1005.1 +36.9
17 17.05 С 2 н/о н/о +26.1 +19.7 68 +32 +32 очень
душно
1013.1 1004.4
20 17.05 штиль 0 н/о н/о +22.6 +18.4 77 +28 +28 душно 1013.1 1004.4
23 17.05 В 3 н/о н/о +27.5 +20.8 67 +34 +34 очень
душно
1015.3 1006.5
02 18.05 В 5 н/о н/о +32.7 +19.6 46 +38 +38 очень
душно
1014.1 1005.4 +22.2
05 18.05 СВ 4 н/о н/о +35.3 +18.0 36 +39 +39 очень
душно
1011.2 1002.5
08 18.05 В 4 н/о н/о +34.6 +17.3 36 +38 +38 очень
душно
1011.1 1002.4
11 18.05 В 1 н/о н/о +29.7 +17.8 49 +34 +34 очень
душно
1013.5 1004.8
14 18.05 В 2 н/о н/о +29.9 +18.0 49 +34 +34 очень
душно
1013.9 1005.2 +36.6
17 18.05 СВ 2 н/о н/о +27.9 +19.7 61 +34 +34 очень
душно
1013.9 1005.2
20 18.05 СВ 2 н/о н/о +26.2 +20.3 70 +32 +32 очень
душно
1014.1 1005.4
23 18.05 В 3 н/о н/о +28.9 +20.9 62 +36 +36 очень
душно
1016.1 1007.3
02 19.05 В 5 н/о н/о +33.7 +17.4 38 +37 +37 очень
душно
1015.3 1006.5 +25.2
05 19.05 ЮВ 6 н/о н/о +35.7 +13.2 26 +36 +36 очень
жарко
1012.2 1003.5
08 19.05 В 4 н/о н/о +35.0 +12.6 26 +35 +35 очень
жарко
1012.4 1003.7
11 19.05 В 2 н/о н/о +30.2 +14.7 39 +32 +32 жарко 1014.3 1005.6
14 19.05 З 3 н/о н/о +28.2 +16.1 48 +31 +31 душно 1015.0 1006.2 +36.7
17 19.05 штиль 0 н/о н/о +26.0 +16.5 56 +30 +30 душно 1014.6 1005.8
20 19.05 СВ 2 н/о н/о +24.8 +18.0 66 +29 +29 душно 1014.9 1006.1
23 19.05 В 5 н/о н/о +29.1 +19.4 56 +35 +35 очень
душно
1016.5 1007.7
02 20.05 В 7 н/о н/о +33.7 +17.0 37 +37 +37 очень
душно
1015.4 1006.6 +23.8
05 20.05 В 6 н/о н/о +36.0 +14.1 27 +37 +37 душно 1012.2 1003.5
08 20.05 В 5 н/о н/о +35.1 +12.7 26 +35 +35 очень
жарко
1012.1 1003.4
11 20.05 В 2 н/о н/о +30.3 +14.0 37 +32 +32 жарко 1014.4 1005.7
14 20.05 СВ 3 н/о н/о +27.9 +15.2 46 +31 +31 душно 1014.7 1005.9 +37.1
17 20.05 В 4 н/о н/о +28.6 +16.2 47 +32 +32 душно 1014.1 1005.4
20 20.05 В 2 н/о н/о +26.3 +17.1 57 +30 +30 душно 1014.8 1006.0
23 20.05 В 5 н/о н/о +28.2 +18.3 55 +33 +33 очень
душно
1016.5 1007.7
02 21.05 В 7 н/о н/о +33.3 +14.4 32 +35 +35 душно 1015.1 1006.3 +24.0
05 21.05 В 7 н/о н/о +35.8 +12.1 24 +36 +36 очень
жарко
1012.0 1003.3

 

Местоположение метеостанции Манбуллу Ксиро (Северная территория, Австралия): широта -14.95 долгота 130.80 высота над уровнем моря 76 м.

В архиве по умолчанию представлена погода в Манбуллу Ксиро за последнюю неделю. Архивные данные за месяц целиком и за предыдущие месяцы, начиная с января 2011 года, Вы можете получить, выбрав интересующий диапазон дат из раскрывающегося списка и нажав кнопку "Ввод!".


*Определитесь, кто Вы:
робот инопланетянин человек

Внимание! Время в таблицах - всемирное. Для получения местного времени необходимо прибавить поправку, которая равна 9.5 ч.

Смотрите также архив погоды в соседних городах и на ближайших метеорологических станциях:

Погода на Маяке Кейп-Дон (Северная территория, Австралия) (131 км)
Погода на Базе ВВС Delamere Weapons Range (Северная территория, Австралия) (149 км)
Погода в Порт Китс (Северная территория, Австралия) (157 км)
Погода в Виктория-Ривер (Северная территория, Австралия) (163 км)
Погода в Тиндале (Северная территория, Австралия) (175 км)
Погода в Батчелоре (Северная территория, Австралия) (213 км)
Погода в Кунунарре (Западная Австралия, Австралия) (242 км)
Погода на Острове Дам-ин-Мирре (Северная территория, Австралия) (262 км)
Погода в Милд Пойнт (Северная территория, Австралия) (267 км)
Погода в Дарвине (Северная территория, Австралия) (283 км)

Пояснения к столбцам:

Ветер - указаны скорость ветра в м/с - средняя за 10 мин, порывы в срок и между сроками (в фигурных скобках) и направление, откуда дует ветер: С - северный, СВ - северо-восточный, В - восточный, ЮВ - юго-восточный, Ю - южный, ЮЗ - юго-западный, З - западный, СЗ - северо-западный.
Видимость - горизонтальная дальность видимости в метрах или километрах. При видимости от 1 до 10 км при отсутствии осадков обычно наблюдается дымка, при ухудшении видимости до 1 км и менее - туман. В сухую погоду видимость может ухудшаться дымом, пылью или мглою.
Явления - указаны атмосферные явления, наблюдавшиеся в срок или в последний час перед сроком; фигурными скобками обозначены явления, наблюдавшиеся между сроками (за 1-3 часа до срока); квадратными скобками обозначены град или гололедные отложения с указанием их диаметра в мм.
Облачность - указаны через наклонную черту общая и нижняя облачность в баллах и высота нижней границы облаков в метрах; квадратными скобками обозначены формы облаков: Ci - перистые, Cs - перисто-слоистые, Cc - перисто-кучевые, Ac - высококучевые, As - высокослоистые, Sc - слоисто-кучевые, Ns - слоисто-дождевые, Cu - кучевые, Cb - кучево-дождевые. Подробнее классификацию облаков см. в Атласе облаков (PDF).
T - Температура воздуха - температура, измеренная на высоте 2 м над землей.
Td - Температура точки росы - температура, при понижении до которой содержащийся в воздухе водяной пар достигнет насыщения.
f - Относительная влажность воздуха - влажноcть воздуха, измеренная на высоте 2 м над землей.
Te - Эффективная температура - температура, которую ощущает одетый по сезону человек в тени. Характеристика душности погоды. При расчете учитывается влияние влажности воздуха и скорости ветра на теплоощущения человека.
Tes - Эффективная температура на солнце - температура, которую ощущает человек, с поправкой на солнечный нагрев. Характеристика знойности погоды. Зависит от высоты солнца над горизонтом, облачности и скорости ветра. Ночью, в пасмурную погоду, а также при ветре 12 м/с и более поправка равна нулю.
P - Атмосферное давление - приведенное к уровню моря атмосферное давление.
Po - Атмосферное давление - измеренное на уровне метеостанции атмосферное давление.
Tmin - Минимальная температура - минимум температуры воздуха на высоте 2 м над землей.
Tmax - Максимальная температура - максимум температуры воздуха на высоте 2 м над землей.
R - Количество осадков - Количество выпавших осадков за период времени, мм. При наведении курсора мыши на число - период времени, за который выпало указанное количество осадков.
R24 - Количество осадков - Количество выпавших осадков за 24 часа, мм.
S - Снежный покров - Высота снежного покрова, см. При наведении курсора мыши на число - состояние снежного покрова и степень покрытия местности в баллах.